DW1597 Weather Reports


Display with metric or nautical units.
time (UTC)temp
F
wind
direction
speed
MPH
gust
MPH
rain 1hr
in
rain 24hr
in
rain mn
in
humidity
%
barometer
mb
20210920234611 73 189 0.0 1.0 0.00 0.05 0.01 34 1020.6
20210920233036 72 189 0.0 1.0 0.00 0.05 0.01 33 1020.8
20210920231612 71 189 0.0 1.0 0.00 0.05 0.01 33 1020.8
20210920230027 72 189 0.0 2.0 0.00 0.05 0.01 33 1020.9
20210920224537 71 189 0.0 3.0 0.00 0.05 0.01 36 1020.9
20210920223040 69 189 2.0 5.0 0.00 0.05 0.01 37 1021.2
20210920221523 67 172 5.0 9.0 0.00 0.05 0.01 39 1021.3
20210920214506 65 43 0.0 0.0 0.00 0.05 0.01 42 1021.4
20210920213028 63 43 0.0 0.0 0.00 0.05 0.01 48 1021.6
20210920211504 63 43 0.0 2.0 0.00 0.06 0.01 44 1021.7
20210920210050 63 43 1.0 3.0 0.00 0.06 0.01 44 1021.8
20210920204604 63 22 0.0 2.0 0.01 0.06 0.01 45 1021.8
20210920203131 63 144 0.0 3.0 0.01 0.06 0.01 45 1021.9
20210920201540 63 146 1.0 7.0 0.01 0.06 0.01 44 1021.9
20210920200052 64 159 4.0 9.0 0.01 0.06 0.01 46 1022.0
20210920193024 64 319 0.0 4.0 0.00 0.05 0.00 46 1021.9
20210920191525 65 196 0.0 6.0 0.00 0.05 0.00 45 1021.9
20210920190059 64 193 1.0 8.0 0.00 0.05 0.00 47 1021.9
20210920184518 64 163 4.0 11.0 0.00 0.05 0.00 48 1022.0
20210920183016 63 159 4.0 9.0 0.00 0.05 0.00 47 1022.1
20210920181609 62 184 3.0 8.0 0.00 0.06 0.00 50 1022.0
20210920180138 61 165 5.0 10.0 0.00 0.06 0.00 52 1022.0
20210920174601 61 168 1.0 8.0 0.00 0.06 0.00 52 1022.1
20210920173106 61 147 2.0 10.0 0.00 0.06 0.00 55 1021.9
20210920171549 61 157 4.0 8.0 0.00 0.06 0.06 54 1021.8
20210920170110 61 147 1.0 8.0 0.00 0.06 0.06 57 1021.8
20210920164544 59 185 1.0 5.0 0.00 0.06 0.06 60 1021.7
20210920163053 59 157 0.0 7.0 0.00 0.06 0.06 63 1021.6
20210920161616 58 184 2.0 10.0 0.00 0.06 0.06 62 1021.7
20210920160118 57 222 4.0 8.0 0.00 0.06 0.06 63 1021.4
20210920154617 57 156 3.0 10.0 0.00 0.06 0.06 66 1021.1
20210920153159 55 292 0.0 3.0 0.00 0.06 0.06 73 1021.2
20210920151526 54 301 3.0 5.0 0.01 0.06 0.06 72 1020.9
20210920150051 54 274 1.0 6.0 0.01 0.06 0.06 74 1021.0
20210920144629 52 295 0.0 3.0 0.01 0.06 0.06 80 1020.7
20210920143051 51 295 0.0 2.0 0.01 0.06 0.06 81 1020.5
20210920141744 50 296 1.0 4.0 0.00 0.06 0.05 82 1020.3
20210920140324 50 296 2.0 4.0 0.00 0.06 0.05 82 1020.3
20210920134636 50 296 2.0 4.0 0.00 0.06 0.05 83 1020.2
20210920131627 49 319 0.0 0.0 0.00 0.06 0.05 86 1019.7
20210920130103 49 319 0.0 0.0 0.00 0.06 0.05 86 1019.5
20210920124546 49 319 0.0 0.0 0.00 0.06 0.05 86 1019.3
20210920123131 49 319 0.0 0.0 0.00 0.06 0.05 86 1019.1
20210920121539 49 319 0.0 0.0 0.00 0.06 0.05 86 1019.1
20210920120003 49 319 0.0 0.0 0.00 0.06 0.05 86 1019.1
20210920114620 49 319 0.0 0.0 0.00 0.06 0.05 86 1018.9
20210920113218 49 319 0.0 0.0 0.00 0.06 0.05 86 1018.8
20210920111657 49 319 0.0 0.0 0.00 0.07 0.05 86 1018.6
20210920110134 49 319 0.0 0.0 0.00 0.07 0.05 86 1018.5
20210920104654 49 319 0.0 0.0 0.00 0.07 0.05 85 1018.4
20210920103129 49 319 0.0 0.0 0.00 0.07 0.05 85 1018.3
20210920101558 48 319 0.0 0.0 0.00 0.07 0.05 85 1018.3
20210920100129 48 319 0.0 0.0 0.00 0.07 0.05 86 1018.1
20210920094557 48 319 0.0 0.0 0.00 0.07 0.05 85 1018.1
20210920093103 48 319 0.0 0.0 0.00 0.07 0.05 86 1018.1
20210920091545 47 319 0.0 0.0 0.01 0.07 0.05 85 1018.1
20210920090137 47 319 0.0 1.0 0.01 0.07 0.05 85 1017.9
20210920084553 48 319 0.0 3.0 0.01 0.07 0.05 84 1017.7
20210920083042 48 319 0.0 2.0 0.01 0.07 0.05 82 1017.6
20210920081543 49 319 0.0 1.0 0.00 0.07 0.04 81 1017.3
20210920080039 49 319 1.0 3.0 0.00 0.07 0.04 79 1017.2
20210920074540 49 319 2.0 3.0 0.00 0.07 0.04 79 1017.3
20210920073046 50 320 0.0 0.0 0.00 0.07 0.04 78 1017.1
20210920071534 50 320 0.0 2.0 0.00 0.07 0.04 79 1017.0
20210920070049 50 320 0.0 0.0 0.00 0.07 0.04 78 1017.0
20210920064528 50 320 0.0 0.0 0.00 0.07 0.04 77 1017.0
20210920063037 50 320 0.0 4.0 0.00 0.07 0.04 78 1017.0
20210920060052 51 223 1.0 2.0 0.00 0.08 0.04 74 1016.6
20210920054536 52 223 1.0 6.0 0.00 0.08 0.04 71 1016.4
20210920053012 52 213 3.0 7.0 0.00 0.08 0.04 70 1016.4
20210920051511 52 194 1.0 6.0 0.00 0.08 0.04 69 1016.1
20210920050028 53 193 0.0 6.0 0.00 0.08 0.04 69 1015.8
20210920043058 53 221 3.0 9.0 0.01 0.08 0.04 69 1015.6
20210920041542 53 290 1.0 7.0 0.01 0.09 0.04 71 1015.2
20210920040055 51 298 1.0 3.0 0.01 0.09 0.04 75 1015.0
20210920034548 52 298 1.0 4.0 0.01 0.09 0.04 76 1014.8
20210920033042 52 298 1.0 2.0 0.00 0.08 0.03 76 1014.6
20210920031554 53 298 1.0 5.0 0.00 0.08 0.03 76 1014.5
20210920030048 54 281 1.0 4.0 0.00 0.08 0.03 72 1014.2
20210920024536 55 213 0.0 0.0 0.00 0.08 0.03 68 1013.9
20210920023036 56 213 0.0 0.0 0.00 0.08 0.03 68 1013.5
20210920021513 57 213 0.0 0.0 0.00 0.09 0.03 66 1013.3
20210920020011 58 213 0.0 0.0 0.00 0.09 0.03 60 1013.3
20210920014512 59 213 0.0 6.0 0.00 0.09 0.03 60 1012.9
20210920013011 60 243 1.0 7.0 0.00 0.09 0.03 58 1012.8
20210920011509 60 215 1.0 8.0 0.00 0.09 0.03 57 1012.6
20210920010004 61 208 0.0 8.0 0.00 0.09 0.03 55 1012.4
20210920004508 62 250 2.0 7.0 0.01 0.09 0.03 53 1012.3
20210920003140 63 198 0.0 5.0 0.01 0.09 0.03 51 1012.1
20210920001646 65 214 3.0 7.0 0.01 0.10 0.03 48 1012.0